{"data":{"norad_id":61261,"intl_designator":"2024-175U","name":"STARLINK-32447","alt_names":[],"object_type":"PAYLOAD","status":"ACTIVE","operator":null,"country":"US","launch_date":"2024-09-25","launch_site_code":"AFWTR","launch_vehicle":null,"mission":null,"orbit_class":"UNKNOWN","rcs_meters":null,"size_class":null,"mass_kg":null,"dimensions":null,"purposes":["comms"],"wikipedia_slug":null,"has_3d_model":false,"image_url":null,"decayed_at":null,"tle_current":{"epoch":"2026-05-25T04:05:34.459008Z","epoch_age_seconds":63581,"freshness":"FRESH","line1":"1 61261U 24175U   26145.17053772 -.00000569  00000+0 -70664-5 0  9994","line2":"2 61261  53.1611 198.7613 0001859  98.3193 261.8019 15.30184980 93161","mean_motion":15.3018498,"eccentricity":0.0001859,"inclination_deg":53.1611,"raan_deg":198.7613,"arg_perigee_deg":98.3193,"mean_anomaly_deg":261.8019,"bstar":-7.0664e-6,"rev_number":9316,"period_min":94.106269426328,"perigee_km":473.98587031196,"apogee_km":476.53396328562,"semimajor_km":6853.3969167988,"source":"CELESTRAK","updated_at":"2026-05-25T13:38:19.367680Z"}}}